Waarnemingen

Advertentie
Mijn weer
Malaga/Aeropuerto, Spanje (8482): temperatuur & dauwpunt: 08.11.2019 18:00:00 - 14.11.2019 18:00:00 (CET)Malaga/Aeropuerto, Spanje (8482): windsnelheid: 08.11.2019 18:00:00 - 14.11.2019 18:00:00 (CET)Malaga/Aeropuerto, Spanje (8482): windrichting: 08.11.2019 18:00:00 - 14.11.2019 18:00:00 (CET)Malaga/Aeropuerto, Spanje (8482): luchtdruk: 08.11.2019 18:00:00 - 14.11.2019 18:00:00 (CET)Malaga/Aeropuerto, Spanje (8482): zicht: 08.11.2019 18:00:00 - 14.11.2019 18:00:00 (CET)
Datum & Tijd tt [°C] td [°C] ff [km/u] ff [kn] dd ppp [hPa] vv [km]
14.11.2019 18:00:00 14,4 5,2 24 13 NW 1008,2 -
14.11.2019 17:00:00 14,4 6,0 29 16 WNW 1007,6 -
14.11.2019 16:00:00 13,7 8,1 29 16 WNW 1008,0 15
14.11.2019 15:00:00 15,4 10,2 26 14 WNW 1008,5 -
14.11.2019 14:00:00 14,7 11,2 18 10 WNW 1008,6 12
14.11.2019 13:00:00 17,8 7,4 13 7 NW 1008,8 20
14.11.2019 12:00:00 18,5 7,2 21 11 W 1010,1 -
14.11.2019 11:00:00 18,7 7,2 11 6 W 1011,1 -
14.11.2019 10:00:00 16,6 6,9 22 12 W 1011,5 25
14.11.2019 09:00:00 15,2 6,1 18 10 WNW 1012,0 -
14.11.2019 08:00:00 14,1 6,6 29 16 WNW 1011,7 20
14.11.2019 07:00:00 12,1 8,1 16 9 W 1011,2 15
14.11.2019 06:00:00 10,6 7,4 9 5 W 1011,4 -
14.11.2019 05:00:00 11,0 7,6 13 7 W 1011,6 -
14.11.2019 04:00:00 11,8 7,8 9 5 WNW 1012,4 15
14.11.2019 03:00:00 13,5 8,6 8 4 WNW 1013,4 -
14.11.2019 02:00:00 14,0 9,3 0 0 N 1014,2 -
14.11.2019 01:00:00 15,4 9,2 5 3 ZW 1014,4 15
14.11.2019 00:00:00 17,2 9,3 8 4 ZW 1014,9 -
13.11.2019 23:00:00 17,3 9,3 9 5 W 1015,7 -
13.11.2019 22:00:00 18,2 9,1 11 6 W 1014,9 15
13.11.2019 21:00:00 18,8 9,7 11 6 W 1014,8 -
13.11.2019 20:00:00 19,4 10,8 22 12 WNW 1014,7 -
13.11.2019 19:00:00 19,8 10,6 9 5 W 1014,3 20
13.11.2019 18:00:00 20,5 11,1 18 10 NW 1013,8 -
13.11.2019 17:00:00 21,2 11,7 21 11 NW 1013,5 -
13.11.2019 16:00:00 21,1 11,6 29 16 NW 1013,6 30
13.11.2019 15:00:00 22,4 12,3 22 12 NW 1013,8 -
13.11.2019 14:00:00 21,6 11,6 22 12 WNW 1014,2 30
13.11.2019 13:00:00 21,7 11,1 18 10 WNW 1014,9 30
13.11.2019 12:00:00 21,0 10,7 16 9 W 1015,4 -
13.11.2019 11:00:00 19,1 10,5 13 7 WNW 1015,5 -
13.11.2019 10:00:00 18,1 9,9 5 3 NNW 1014,9 25
13.11.2019 09:00:00 17,1 10,0 8 4 WZW 1014,4 -
13.11.2019 08:00:00 16,5 9,9 9 5 Z 1014,1 15
13.11.2019 07:00:00 16,5 10,1 16 9 WNW 1014,0 15
13.11.2019 06:00:00 16,7 8,3 15 8 NW 1013,8 -
13.11.2019 05:00:00 16,1 8,2 16 9 NW 1014,1 -
13.11.2019 04:00:00 15,5 7,9 15 8 WNW 1014,3 15
13.11.2019 03:00:00 16,1 7,0 18 10 WNW 1014,8 -
13.11.2019 02:00:00 15,4 5,9 22 12 WNW 1015,3 -
13.11.2019 01:00:00 15,9 5,9 28 15 WNW 1015,2 15
13.11.2019 00:00:00 16,0 6,0 24 13 WNW 1015,4 -
12.11.2019 23:00:00 16,7 5,9 24 13 WNW 1015,4 -
12.11.2019 22:00:00 17,0 5,8 26 14 WNW 1015,1 15
12.11.2019 21:00:00 17,4 5,7 29 16 WNW 1014,9 -
12.11.2019 20:00:00 17,1 5,9 28 15 WNW 1014,7 -
12.11.2019 19:00:00 16,9 6,8 18 10 WNW 1014,5 30
12.11.2019 18:00:00 17,7 6,8 22 12 NW 1014,4 -
12.11.2019 17:00:00 18,6 6,1 28 15 NW 1014,2 -
12.11.2019 16:00:00 19,1 7,5 28 15 NW 1014,0 30
12.11.2019 15:00:00 20,2 7,7 34 18 WNW 1014,5 -
12.11.2019 14:00:00 19,8 7,6 28 15 WNW 1014,7 30
12.11.2019 13:00:00 19,3 8,2 28 15 NW 1015,6 30
12.11.2019 12:00:00 18,8 9,1 29 16 WNW 1015,9 -
12.11.2019 11:00:00 17,8 9,3 31 17 WNW 1016,1 -
12.11.2019 10:00:00 16,7 9,9 28 15 WNW 1016,1 30
12.11.2019 09:00:00 15,1 10,0 26 14 WNW 1015,7 -
12.11.2019 08:00:00 14,3 10,0 31 17 WNW 1015,4 30
12.11.2019 07:00:00 14,8 10,0 34 18 WNW 1014,5 20
12.11.2019 06:00:00 15,1 10,4 29 16 WNW 1015,0 -
12.11.2019 05:00:00 15,6 10,3 34 18 WNW 1014,8 -
12.11.2019 04:00:00 15,2 10,9 24 13 WNW 1015,2 20
12.11.2019 03:00:00 15,8 11,3 24 13 WNW 1015,2 -
12.11.2019 02:00:00 15,5 11,9 26 14 WNW 1015,6 -
12.11.2019 01:00:00 15,7 11,9 16 9 W 1016,0 20
12.11.2019 00:00:00 16,2 11,9 18 10 W 1016,2 -
11.11.2019 23:00:00 16,6 11,8 18 10 W 1016,7 -
11.11.2019 22:00:00 16,9 11,9 16 9 WNW 1016,6 15
11.11.2019 21:00:00 16,9 11,9 18 10 W 1016,7 -
11.11.2019 20:00:00 16,4 11,7 15 8 W 1016,3 -
11.11.2019 19:00:00 16,6 11,6 21 11 WNW 1016,6 15
11.11.2019 18:00:00 16,9 11,1 22 12 WNW 1015,9 -
11.11.2019 17:00:00 17,4 9,8 28 15 NW 1015,8 -
11.11.2019 16:00:00 17,7 9,5 22 12 NW 1016,0 15
11.11.2019 15:00:00 17,3 9,1 24 13 NW 1015,9 -
11.11.2019 14:00:00 17,5 8,4 16 9 NW 1016,8 15
11.11.2019 13:00:00 17,2 7,5 11 6 WNW 1017,7 15
11.11.2019 12:00:00 16,8 7,4 16 9 NW 1018,4 -
11.11.2019 11:00:00 15,6 7,2 16 9 NW 1019,1 -
11.11.2019 10:00:00 14,7 7,1 18 10 WNW 1019,7 15
11.11.2019 09:00:00 14,1 7,2 13 7 WNW 1019,8 -
11.11.2019 08:00:00 13,6 7,1 15 8 WNW 1019,6 20
11.11.2019 07:00:00 13,8 6,7 9 5 WZW 1019,5 20
11.11.2019 06:00:00 14,4 6,8 22 12 WNW 1019,4 -
11.11.2019 05:00:00 14,4 6,5 21 11 WNW 1019,0 -
11.11.2019 04:00:00 14,7 6,0 16 9 WNW 1019,3 20
11.11.2019 03:00:00 14,8 5,4 9 5 WNW 1020,1 -
11.11.2019 02:00:00 15,0 5,2 11 6 WNW 1020,5 -
11.11.2019 01:00:00 14,7 5,3 15 8 WNW 1020,1 20
11.11.2019 00:00:00 14,8 5,1 21 11 W 1020,2 -
10.11.2019 23:00:00 14,6 5,0 22 12 WNW 1019,9 -
10.11.2019 22:00:00 14,4 4,2 13 7 WNW 1019,6 20
10.11.2019 21:00:00 15,1 3,8 13 7 WNW 1019,9 -
10.11.2019 20:00:00 15,5 3,2 16 9 WNW 1019,8 -
10.11.2019 19:00:00 16,6 2,6 28 15 WNW 1019,2 30
10.11.2019 18:00:00 17,8 1,0 21 11 NW 1018,2 -
10.11.2019 17:00:00 18,7 1,2 31 17 NW 1018,0 -
10.11.2019 16:00:00 19,6 1,1 29 16 NW 1017,3 30
10.11.2019 15:00:00 18,8 1,7 34 18 NW 1017,5 -
10.11.2019 14:00:00 17,6 4,1 34 18 NW 1018,1 30
10.11.2019 13:00:00 17,5 4,0 35 19 WNW 1018,3 30
10.11.2019 12:00:00 16,9 4,5 35 19 NW 1018,5 -
10.11.2019 11:00:00 16,1 3,9 31 17 NW 1018,6 -
10.11.2019 10:00:00 15,6 4,9 41 22 WNW 1018,2 30
10.11.2019 09:00:00 15,0 5,1 37 20 WNW 1017,6 -
10.11.2019 08:00:00 14,9 6,8 39 21 WNW 1016,9 30
10.11.2019 07:00:00 15,6 7,5 37 20 WNW 1016,7 30
10.11.2019 06:00:00 16,3 8,8 35 19 WNW 1016,8 -
10.11.2019 05:00:00 16,7 8,8 29 16 WNW 1016,9 -
10.11.2019 04:00:00 15,3 9,5 0 0 N 1017,8 30
10.11.2019 03:00:00 15,6 9,2 8 4 ZW 1018,2 -
10.11.2019 02:00:00 15,8 8,2 5 3 WZW 1018,9 -
10.11.2019 01:00:00 15,4 7,3 9 5 W 1019,4 30
10.11.2019 00:00:00 15,5 5,9 15 8 W 1020,2 -
09.11.2019 23:00:00 15,5 4,3 9 5 W 1020,6 -
09.11.2019 22:00:00 16,7 3,6 29 16 WNW 1020,8 30
09.11.2019 21:00:00 16,4 3,0 22 12 WNW 1020,5 -
09.11.2019 20:00:00 16,6 2,6 28 15 WNW 1021,1 -
09.11.2019 19:00:00 17,0 1,5 22 12 WNW 1020,9 20
09.11.2019 18:00:00 17,8 1,2 26 14 WNW 1020,5 -
09.11.2019 17:00:00 19,4 1,1 26 14 NW 1020,3 -
09.11.2019 16:00:00 19,9 0,4 24 13 WNW 1020,5 40
09.11.2019 15:00:00 19,9 1,2 26 14 WNW 1020,9 -
09.11.2019 14:00:00 19,4 0,3 29 16 WNW 1021,6 40
09.11.2019 13:00:00 18,9 0,0 29 16 WNW 1022,8 40
09.11.2019 12:00:00 17,9 1,9 28 15 W 1023,3 -
09.11.2019 11:00:00 15,9 2,2 29 16 W 1023,5 -
09.11.2019 10:00:00 14,5 2,2 28 15 W 1023,8 40
09.11.2019 09:00:00 13,3 2,1 22 12 W 1023,6 -
09.11.2019 08:00:00 12,3 1,7 21 11 W 1023,1 30
09.11.2019 07:00:00 12,6 1,4 18 10 W 1022,3 20
09.11.2019 06:00:00 12,6 1,5 18 10 WNW 1022,1 -
09.11.2019 05:00:00 13,0 1,2 24 13 W 1022,2 -
09.11.2019 04:00:00 13,6 1,0 26 14 W 1022,3 20
09.11.2019 03:00:00 13,8 1,2 26 14 W 1022,3 -
09.11.2019 02:00:00 14,0 1,1 31 17 W 1022,3 -
09.11.2019 01:00:00 14,2 0,9 22 12 W 1022,1 20
09.11.2019 00:00:00 15,0 1,1 31 17 W 1022,7 -
08.11.2019 23:00:00 14,4 1,2 18 10 W 1022,7 -
08.11.2019 22:00:00 14,2 1,3 18 10 W 1022,0 20
08.11.2019 21:00:00 14,3 1,0 16 9 W 1021,6 -
08.11.2019 20:00:00 14,8 1,6 22 12 W 1021,3 -
08.11.2019 19:00:00 16,0 1,4 16 9 WNW 1021,0 30
08.11.2019 18:00:00 16,8 1,9 18 10 WNW 1020,2 -

tt = temperatuur
td = dauwpunt
ff = windsnelheid
dd = windrichting
ppp = luchtdruk
vv = zicht

Weerstations in de omgeving